Regional Weather Roundup
Issued by NWS Albany, NY

Home | Current Version | Previous Version | Text Only | Print | Product List | Glossary On
Versions: 1 2 3 4 5 6 7 8 9 10 11 12 13 14 15 16 17 18 19 20 21 22 23 24 25 26 27 28 29 30 31 32 33 34 35 36 37 38 39 40 41 42 43 44 45 46 47 48 49 50
000
ASUS41 KALY 060610
RWRALY

NEW YORK STATE HOURLY WEATHER ROUNDUP
NATIONAL WEATHER SERVICE ALBANY NY
200 AM EDT MON JUL 06 2015

NOTE: "FAIR" INDICATES FEW OR NO CLOUDS BELOW 12,000 FEET WITH NO
SIGNIFICANT WEATHER AND/OR NO OBSTRUCTIONS TO VISIBILITY.

NYZ032-033-038>043-046>054-057>066-NYZ062>081-060700-
EAST


CITY           SKY/WX    TMP DP  RH WIND       PRES   REMARKS
ALBANY         PTCLDY    63  56  78 CALM      30.14S
GLENS FALLS    PTCLDY    62  59  90 CALM      30.14R
POUGHKEEPSIE   CLEAR     63  60  90 CALM      30.14S
NEWBURGH       CLEAR     64  63  94 CALM      30.16F
MONTGOMERY     PTCLDY    61  60  97 CALM      30.15S FOG
WHITE PLAINS   MOCLDY    65  63  93 CALM      30.15F FOG
ISLIP          PTCLDY    69  65  86 SW3       30.14S
NEW YORK CITY  MOCLDY    74  65  73 CALM      30.13F
CENTRAL PARK   MOCLDY    74  65  73 W3        30.17S
$$

NYZ005>009-017-018-044>046-055-056-060700-
CENTRAL


CITY           SKY/WX    TMP DP  RH WIND       PRES   REMARKS
FULTON         PTCLDY    61  58  90 SE3       30.13S
SYRACUSE       MOCLDY    61  58  90 E5        30.12F
ROME           PTCLDY    57  56  96 SE5       30.15F
ELMIRA         MOCLDY    59  58  96 CALM      30.15F
BINGHAMTON     MOCLDY    61  56  83 SE5       30.17F
MONTICELLO     PTCLDY    57  55  94 CALM      30.20S
$$

NYZ026>034-041>043-060700-
NORTH


CITY           SKY/WX    TMP DP  RH WIND       PRES   REMARKS
WATERTOWN      CLEAR     55  53  93 CALM      30.12S FOG
FORT DRUM      NOT AVBL
MASSENA        CLEAR     60  57  89 CALM      30.12S
SARANAC LAKE   FOG       48  47  96 CALM      30.17S VSB 1
PLATTSBURGH    CLEAR     59  57  93 CALM      30.12S
$$

NYZ001>004-010>016-019>021-060700-
WEST


CITY           SKY/WX    TMP DP  RH WIND       PRES   REMARKS
NIAGARA FALLS  MOCLDY    64  58  80 CALM      30.09F
BUFFALO        MOCLDY    67  60  78 SE5       30.11S
DUNKIRK        MOCLDY    65  60  84 SE3       30.10S
JAMESTOWN      CLOUDY    63  55  77 SE6       30.15S
WELLSVILLE     CLOUDY    64  56  75 CALM      30.19F
ROCHESTER      LGT RAIN  67  61  81 CALM      30.12S
PENN YAN       MOCLDY    64  61  90 SW5       30.14F
$$

             KEY
       WCI = WIND CHILL INDEX
       VSB = VISIBILITY
       HX  = HEAT INDEX
$$



USA.gov is the U.S. government's official web portal to all federal, state and local government web resources and services.